FENGYUN 1C DEB, 30579

Orbit data source: Space-Track

FENGYUN 1C DEB, 30579 is space debris in SSO originally from a launch on Mon, 10 May 1999 UTC launched from the Taiyaun Space Center, China (TSC). Fengyun 1C debris stems from the Chinese weather satellite Fengyun-1C, which was intentionally destroyed by a Chinese anti-satellite missile in 2007. This event dramatically increased the amount of space debris, with thousands of trackable fragments posing hazards to satellites and human spaceflight. The Fengyun 1C debris cloud has become a focal point in discussions about space sustainability and the need for international regulations to prevent the creation of new debris.

Loading next visibility...
Identifier
30579, 1999-025ALV
Orbit
SSO
Country
Flag of CNCN / PRC
Related business
Manufacturer
Unknown
Mission
Spacecraft
Bus & Motor
Unknown
Mass
Unknown
Launch date (UTC)
1999-05-10 (27 years ago)
Launch vehicle
Unknown
Launch site
Taiyaun Space Center, China (TSC)
Object type
Payload
Rocket body
Debris
Shape & HBR
Unknown shape, 0.1 m
Radar Cross Section
Small (<0.1 m²)

Expand to show TLE details & history
Last TLE update: 9 hours ago

TLE from 9 hours ago
0 FENGYUN 1C DEB
1 30579U 99025ALV 26063.03985547  .00000358  00000-0  24473-3 0  9996
2 30579  98.7994  90.3504 0052057 234.5687 181.4337 14.05348423975997
Epoch: 2026-03-04T00:57Z
TLE epoch observation values (Epoch: 2026-03-04T00:57:23.512Z)
Latitude
55.09986°
Longitude
-98.56012°
Altitude
922.174 km
Speed
7.377 km/s
True Right ascension
05h 10m 23s
True Declination
54° 56' 31"
Sunlit
Object was in daylight at epoch
Visualization orbit readout
Latitude
Unknown
Longitude
Unknown
Altitude
Unknown
Speed
Unknown
Apparent Right ascension
Unknown
Apparent Declination
Unknown
Sunlit
N/A
Visualization observer readout
Local Sidereal Time
14:14:13
Azimuth
Unknown
Elevation
Unknown
Doppler factor
Unknown
Orbital elements
Apogee altitude
910.26 km
Perigee altitude
834.771 km
Semi-major axis
7,250.653 km
Eccentricity
0.00521
Inclination
98.7994°
RAAN
90.3504°
Arg. of periapsis
234.5687°
True anomaly
181.41887°
Mean anomaly
181.4337°
Eccentric anomaly
181.42628°
Mean motion
3.51542 °/min
Orbital period
102.41 mins
BSTAR
0.00024473
Loading maneuver chart data...
Computing Atmospheric mass density...
Loading historical data...
Loading historical data...
Loading historical data...
Loading historical data...
Loading historical data...
Loading historical data...
Loading historical data...

Documentation

Showing up to 5 results
|